Location: Bauerbach
(50.4985°N, 10.3912°E)
Time: 10:29:23
(UTC+00:00)

SJ 16-02 - Pass Details

Date: 13 January 2026
Orbit: 583 x 594 km, 75.0° (Epoch: 15 February)

Event Time Altitude Azimuth Distance (km) Brightness Sun altitude
Rises 06:06:36 0° 168° (SSE) 2,793 5.2 -10.4°
Reaches altitude 10° 06:09:05 10° 156° (SSE) 1,899 4.6 -10.0°
Maximum altitude 06:12:33 25° 100° (E) 1,189 3.8 -9.5°
Drops below altitude 10° 06:16:03 10° 45° (NE) 1,913 4.2 -9.0°
Sets 06:18:33 0° 32° (NNE) 2,819 4.9 -8.7°
